Вернуться в каталог

HULIANWANG DIGUI-89

АктивенСвязьLEO
NORAD 65997·PAYLOAD·🇨🇳 China

Запущен Oct 16, 2025 с Wenchang Space Launch Site

Loading…

Ближайшие Пролёты (ближайшие 24 часа)

TLE

СвежийSource: Space-Track

Эпоха: Sep 14, 2026, 14:53 UTC

1 65997U 25231C   26257.62022384 -.00000096  00000-0  59713-4 0  9993
2 65997  49.9954 214.8951 0000320  38.3091 321.7804 13.29327338 44786

Отслеживайте HULIANWANG DIGUI-89 в реальном времени с AllMySat

Download on the App Store